User: anonymous   Login
Location: Fort Hays State University
(38.8712°N, 99.3432°W)
Time: 23:44:59
(UTC-06:00)
Language:

Cosmos 2279 Rocket - Orbit

View from above orbital plane
View from above orbital plane
View from above satellite
View from above satellite

Ground track
Ground track

The orbit data is extracted from the following two-line orbital elements,

1 23093U 94024B   15026.54643814 -.00000120  00000-0 -13521-3 0  9670
2 23093 082.9452 043.4619 0008692 290.3250 069.6973 13.77641439511273
Epoch (UTC): 26 January 2015 13:06:52
Eccentricity: 0.0008692
inclination: 82.9452°
perigee height: 966 km
apogee height: 978 km
right ascension of ascending node: 43.4619°
argument of perigee: 290.3250°
revolutions per day: 13.77641439
mean anomaly at epoch: 69.6973°
orbit number at epoch: 51127

The dashed part of the orbit path shows where the satellite is in the earth's shadow,  

DLR